パロマー彗星

C/2012 LP26 ( Palomar )

English version
Home page
Updated on November 7, 2017

---------------------------------------------------------------------

・ プロフィール

発見日 2012年6月10日
発見光度 20.8等
発見者 Palomar Transient Factory program

・ 写真集

・ 軌道要素

Epoch 2015 Aug. 6.0 TT = JDT 2457240.5
T 2015 Aug. 16.60550 TT                                 MPCW
q   6.5360641            (2000.0)            P               Q
z  +0.0001214      Peri.  145.15573     +0.51117918     +0.83866608
 +/-0.0000010      Node   153.98757     -0.85327677     +0.52142405
e   0.9992067      Incl.   25.37972     -0.10302716     -0.15734092
From 319 observations 2012 May 23-2016 Oct. 2, mean residual 0".6.

・ 光度変化

        m1 = 3.7 + 5 logΔ + 12.0 log r(t - 70)

---------------------------------------------------------------------

軌道要素はM.P.E.C. 2016-U66に掲載されたものです。
光度グラフはComet for Windowsで作成したものです。

---------------------------------------------------------------------

Copyright(C) Seiichi Yoshida (comet@aerith.net). All rights reserved.